[[{"header":{"parameterUnit":"m.s-1","parameterCategory":2,"la1":30.2991,"la2":30.254,"lo1":-89.0895,"lo2":-89.0444,"dy":0.0017,"dx":0.0017,"nx":28,"ny":28,"refTime":"2024-12-19T03:00:00:Z","depth":"0","parameterNumber":2,"parameterNumberName":"U-component_of_CURRENTS"},"data":[0,0,0,0,0,0,0,0,0,0,0,0,0,0,0,0,0,0,0,0,0,0,0,0,0,0,0,0,0,0,0,0,0,0,0,0,0,0,0,0,0,0,0,0,0,0,0,0,0,0,0,0,0,0,0,0,0,0,0.2289,0.229,0,0.2336,0.2336,0.2336,0.2358,0.2359,0.2359,0.2359,0.2368,0.2368,0.2368,0,0,0,0,0,0,0,0,0,0,0,0,0,0.2236,0.2236,0.2289,0.229,0.2291,0.2336,0.2336,0.2336,0.2358,0.2359,0.2359,0.2359,0.2368,0.2368,0.2368,0,0,0,0,0,0,0,0,0,0,0,0,0,0.2266,0.2237,0.2289,0.2309,0.2312,0.2336,0.2336,0.2337,0.2358,0.2359,0.2359,0.2359,0.2368,0.2368,0.2368,0.2361,0,0,0.2368,0.2368,0,0,0,0,0,0,0,0,0.2264,0.2267,0.2305,0.2308,0.2311,0.2344,0.2321,0.2344,0.2358,0.2337,0.2359,0.2359,0.2358,0.2359,0.2364,0.2362,0.2362,0.2368,0.2368,0.2368,0.2368,0,0,0,0,0,0,0,0.2262,0.2265,0.2304,0.2306,0.2309,0.2322,0.2326,0.2326,0.2342,0.2339,0.2342,0.2351,0.2359,0.2364,0.2364,0.2362,0.2368,0.2368,0.2368,0.2368,0.2388,0.2388,0,0,0,0,0,0,0.2261,0.2263,0.2303,0.2306,0.2291,0.2323,0.2327,0.2331,0.2343,0.2347,0.2351,0.2352,0.2363,0.2364,0.2364,0.2394,0.2368,0.2368,0.2368,0.2387,0.2388,0.2388,0,0,0,0,0,0,0.2259,0.2263,0.2301,0.2289,0.2295,0.2324,0.2327,0.2331,0.2339,0.2353,0.2355,0.2354,0.2364,0.2364,0.2368,0.2393,0.2368,0.2368,0.2387,0.2387,0.2388,0.243,0,0,0,0,0,0,0.2257,0.2262,0.2261,0.2288,0.2295,0.2316,0.2327,0.2332,0.2345,0.2347,0.2356,0.2358,0.2364,0.2368,0.2368,0.2393,0.2369,0.2386,0.2387,0.2388,0.2428,0.2432,0.2436,0,0,0,0,0,0.2255,0.2255,0.226,0.2266,0.2294,0.2316,0.232,0.2341,0.2345,0.2347,0.2356,0.2358,0.2375,0.2368,0.2368,0.2394,0.2386,0.2387,0.2388,0.2426,0.2431,0.2436,0,0,0,0,0,0,0.223,0.2258,0.2265,0.2272,0.2293,0.2321,0.2327,0.2339,0.2348,0.2348,0.2357,0.2359,0.2376,0.2371,0.2364,0.2401,0.2383,0.2384,0.2412,0.2417,0.2421,0.2456,0.2369,0,0,0,0,0,0.2224,0.2231,0.2259,0.2265,0.2274,0.2298,0.2309,0.2323,0.2338,0.2343,0.2352,0.2362,0.238,0.2386,0.2394,0.2406,0.2437,0.2423,0.2427,0.243,0.2458,0.2512,0.2524,0.2392,0.2392,0.2392,0,0,0.2217,0.2233,0.2237,0.226,0.2276,0.2305,0.2305,0.2322,0.2352,0.2341,0.2371,0.2371,0.2384,0.2408,0.2415,0.2408,0.2484,0.2432,0.2435,0.2462,0.2515,0.2528,0.254,0.2393,0.2393,0.2392,0,0,0.2217,0.2218,0.2232,0.2252,0.228,0.23,0.2305,0.2331,0.2348,0.2369,0.238,0.2398,0.2407,0.2438,0.2452,0.2478,0.25,0.2471,0.2524,0.2575,0.2587,0.2598,0.2659,0.2675,0.2475,0.2475,0.2475,0,0.2209,0.2234,0.2238,0.2265,0.2291,0.2301,0.2333,0.2352,0.2378,0.2404,0.2382,0.2435,0.2433,0.2499,0.2509,0.2492,0.2525,0.2506,0.2583,0.2594,0.2605,0.2665,0.2682,0.2478,0.2477,0.2477,0.2477,0,0.2232,0.2254,0.2263,0.2305,0.2327,0.2352,0.2387,0.2409,0.2422,0.2449,0.2497,0.2498,0.254,0.2535,0.2532,0.261,0.2611,0.258,0.2577,0.2621,0.2681,0.2698,0.2481,0.248,0.2479,0.2479,0,0,0.2218,0.227,0.2276,0.2307,0.2353,0.2376,0.2429,0.2487,0.2536,0.2546,0.2615,0.2636,0.2639,0.2657,0.2654,0.2693,0.2787,0.2673,0.2674,0.2745,0.2918,0.29,0.2917,0.2768,0.2771,0.2774,0.2931,0,0.2241,0.2295,0.232,0.238,0.2413,0.245,0.2502,0.2553,0.259,0.265,0.2673,0.2721,0.2686,0.2707,0.2746,0.2777,0.2834,0.2748,0.2855,0.2859,0.2847,0.2937,0.282,0.2949,0.2948,0.2951,0.2953,0,0.2264,0.2301,0.2358,0.2432,0.245,0.2488,0.258,0.2628,0.2715,0.2744,0.2803,0.282,0.2898,0.2841,0.2953,0.29,0.2926,0.2941,0.2947,0.2934,0.2874,0.2902,0.2981,0.2922,0.298,0.2978,0.2976,0,0.2259,0.2331,0.2377,0.2402,0.2482,0.2522,0.2569,0.2656,0.2714,0.2812,0.2865,0.2942,0.2993,0.3037,0.3074,0.3024,0.3193,0.312,0.314,0.3139,0.3066,0.3053,0.3111,0.3217,0.3216,0.3216,0.3216,0,0.2277,0.2316,0.2376,0.2403,0.2462,0.2524,0.2601,0.2662,0.2769,0.2835,0.2911,0.2983,0.3045,0.3135,0.3142,0.3218,0.3256,0.3193,0.3192,0.3075,0.3062,0.3025,0.2989,0.3222,0.3221,0.3219,0.3218,0,0.2258,0.2302,0.2353,0.2433,0.2457,0.2497,0.2601,0.2664,0.2772,0.2868,0.2906,0.3054,0.3168,0.324,0.3334,0.3318,0.3295,0.3388,0.3258,0.3238,0.3158,0.3127,0.3093,0.2999,0.3434,0.3435,0.3435,0,0.2251,0.2276,0.2347,0.2373,0.2406,0.2473,0.2521,0.2638,0.2705,0.2893,0.2937,0.311,0.3196,0.3372,0.3391,0.3457,0.334,0.3382,0.3255,0.3184,0.315,0.3006,0.2916,0.318,0.3178,0.3177,0.3176,0,0.2229,0.2251,0.2287,0.2329,0.2374,0.2427,0.2505,0.2558,0.2693,0.279,0.2918,0.3016,0.3217,0.3253,0.338,0.3386,0.3224,0.3357,0.3315,0.3005,0.2822,0.2718,0.3056,0.3165,0.3166,0.3167,0.3167,0.3168,0.2193,0.2198,0.2232,0.2267,0.2315,0.2347,0.235,0.2446,0.2524,0.2622,0.2792,0.2894,0.3072,0.3234,0.3238,0.321,0.3161,0.3111,0.3101,0.2977,0.2817,0.3148,0.3224,0.3225,0.3226,0.3227,0.3228,0,0.2115,0.2129,0.2167,0.2183,0.2188,0.2246,0.2305,0.229,0.2311,0.2467,0.2553,0.2734,0.2839,0.2973,0.3055,0.2971,0.2803,0.2904,0.2671,0.2608,0.2947,0.2867,0.2829,0.2829,0.2829,0.2829,0.283,0.283,0.2071,0.2054,0.2068,0.2032,0.2048,0.2001,0.1999,0.2008,0.2087,0.2169,0.2272,0.241,0.2728,0.2928,0.2909,0.2825,0.2595,0.2494,0.2483,0.2733,0.275,0.2766,0.2682,0.2606,0.2606,0.2008,0.2004,0.2001]},{"header":{"parameterUnit":"m.s-1","parameterCategory":2,"la1":30.2991,"la2":30.254,"lo1":-89.0895,"lo2":-89.0444,"dy":0.0017,"dx":0.0017,"nx":28,"ny":28,"refTime":"2024-12-19T03:00:00:Z","depth":"0","parameterNumber":3,"parameterNumberName":"V-component_of_CURRENTS"},"data":[0,0,0,0,0,0,0,0,0,0,0,0,0,0,0,0,0,0,0,0,0,0,0,0,0,0,0,0,0,0,0,0,0,0,0,0,0,0,0,0,0,0,0,0,0,0,0,0,0,0,0,0,0,0,0,0,0,0,-0.0255,-0.0256,0,-0.0328,-0.0329,-0.033,-0.0391,-0.0392,-0.0393,-0.0393,-0.0499,-0.0501,-0.0503,0,0,0,0,0,0,0,0,0,0,0,0,0,-0.0227,-0.0227,-0.0255,-0.0256,-0.0256,-0.0328,-0.0329,-0.033,-0.0391,-0.0392,-0.0393,-0.0393,-0.0498,-0.0501,-0.0503,0,0,0,0,0,0,0,0,0,0,0,0,0,-0.0264,-0.0227,-0.0255,-0.0295,-0.0299,-0.0327,-0.0329,-0.033,-0.0391,-0.0392,-0.0393,-0.0394,-0.0497,-0.05,-0.0504,-0.0506,0,0,-0.0514,-0.0515,0,0,0,0,0,0,0,0,-0.0262,-0.0265,-0.0288,-0.0292,-0.0297,-0.0351,-0.0358,-0.039,-0.0391,-0.0357,-0.0393,-0.0394,-0.0451,-0.0458,-0.0471,-0.0511,-0.0516,-0.0514,-0.0516,-0.0518,-0.0519,0,0,0,0,0,0,0,-0.0259,-0.0263,-0.0285,-0.0289,-0.0295,-0.033,-0.0336,-0.0364,-0.0399,-0.036,-0.0365,-0.0371,-0.0454,-0.0467,-0.0474,-0.0517,-0.0514,-0.0517,-0.0519,-0.052,-0.0577,-0.0577,0,0,0,0,0,0,-0.0244,-0.026,-0.0282,-0.0287,-0.0281,-0.0329,-0.0336,-0.0333,-0.0398,-0.0409,-0.037,-0.0374,-0.0461,-0.047,-0.0478,-0.0494,-0.0518,-0.0521,-0.0523,-0.0578,-0.0577,-0.0577,0,0,0,0,0,0,-0.0243,-0.0245,-0.0279,-0.0275,-0.0282,-0.0328,-0.0325,-0.0334,-0.0346,-0.0406,-0.0417,-0.0373,-0.0462,-0.0473,-0.0494,-0.0499,-0.0522,-0.0525,-0.0578,-0.0578,-0.0577,-0.0522,0,0,0,0,0,0,-0.0242,-0.0244,-0.0237,-0.0273,-0.0281,-0.0286,-0.0325,-0.0335,-0.0349,-0.0354,-0.0412,-0.0423,-0.0464,-0.0488,-0.0497,-0.0504,-0.0528,-0.0579,-0.0578,-0.0577,-0.0524,-0.0519,-0.0515,0,0,0,0,0,-0.0241,-0.0224,-0.0236,-0.0239,-0.027,-0.0285,-0.0292,-0.033,-0.0348,-0.0345,-0.0383,-0.0421,-0.0489,-0.049,-0.0501,-0.0509,-0.058,-0.0578,-0.0577,-0.0526,-0.052,-0.0515,0,0,0,0,0,0,-0.0207,-0.023,-0.0244,-0.0235,-0.0254,-0.0295,-0.0297,-0.032,-0.0347,-0.0353,-0.0409,-0.0422,-0.0445,-0.0476,-0.0476,-0.0521,-0.0543,-0.0543,-0.05,-0.0495,-0.0491,-0.0482,-0.0531,0,0,0,0,0,-0.0195,-0.0191,-0.0218,-0.0211,-0.0216,-0.0254,-0.0265,-0.0287,-0.0316,-0.033,-0.037,-0.0412,-0.0448,-0.0469,-0.0502,-0.0521,-0.0548,-0.0534,-0.0529,-0.0525,-0.0524,-0.0566,-0.0566,-0.0573,-0.0573,-0.0573,0,0,-0.0182,-0.0193,-0.0192,-0.0204,-0.0223,-0.0229,-0.0263,-0.027,-0.0281,-0.0336,-0.0359,-0.0394,-0.0447,-0.0472,-0.0486,-0.05,-0.0532,-0.0524,-0.052,-0.0522,-0.0565,-0.0565,-0.0564,-0.0572,-0.0572,-0.0572,0,0,-0.0154,-0.0159,-0.0149,-0.016,-0.0179,-0.0203,-0.02,-0.0232,-0.0251,-0.0271,-0.0317,-0.0347,-0.04,-0.0441,-0.0469,-0.0455,-0.0503,-0.0468,-0.0446,-0.0486,-0.0486,-0.0486,-0.0498,-0.05,-0.0471,-0.0471,-0.0471,0,-0.0138,-0.0128,-0.0148,-0.0143,-0.015,-0.0187,-0.0179,-0.0204,-0.0241,-0.0251,-0.0271,-0.0346,-0.0389,-0.0429,-0.043,-0.0447,-0.0467,-0.0463,-0.048,-0.0481,-0.0483,-0.0495,-0.0498,-0.0468,-0.0468,-0.0468,-0.0469,0,-0.0108,-0.0101,-0.0093,-0.0103,-0.0111,-0.0107,-0.014,-0.0151,-0.0178,-0.0208,-0.0241,-0.0297,-0.0343,-0.0365,-0.0398,-0.0429,-0.0438,-0.0466,-0.0494,-0.0479,-0.0493,-0.0497,-0.0464,-0.0465,-0.0466,-0.0466,0,0,-0.0069,-0.0071,-0.0069,-0.0062,-0.0086,-0.0085,-0.01,-0.012,-0.0121,-0.0171,-0.0181,-0.0254,-0.0282,-0.0315,-0.036,-0.0402,-0.0425,-0.0435,-0.0439,-0.0445,-0.0494,-0.0462,-0.0463,-0.046,-0.046,-0.0461,-0.0492,0,-0.0039,-0.0014,-0.0029,-0.0011,0.0,-0.0033,-0.0037,-0.0062,-0.0092,-0.011,-0.0178,-0.0204,-0.0265,-0.0278,-0.0332,-0.0397,-0.0437,-0.0413,-0.051,-0.0512,-0.0485,-0.0468,-0.0446,-0.047,-0.0496,-0.0497,-0.0498,0,-0.0004,0.0008,0.0038,0.0047,0.005,0.0052,0.0048,0.0038,-0.0003,-0.0027,-0.0077,-0.0125,-0.0189,-0.024,-0.0357,-0.0338,-0.0412,-0.0469,-0.0472,-0.0466,-0.0488,-0.0494,-0.0476,-0.0625,-0.0504,-0.0504,-0.0503,0,0.0041,0.0056,0.0085,0.0086,0.0087,0.0098,0.0095,0.0069,0.0084,0.0029,0.0038,-0.0062,-0.0082,-0.0205,-0.0317,-0.0342,-0.0433,-0.0483,-0.0524,-0.0522,-0.0535,-0.0532,-0.0674,-0.0572,-0.0571,-0.0571,-0.0571,0,0.0082,0.0106,0.0113,0.0131,0.0178,0.0153,0.0195,0.0173,0.0168,0.0204,0.0091,0.0112,-0.0075,-0.0145,-0.0282,-0.0394,-0.0408,-0.0512,-0.0531,-0.0511,-0.0506,-0.0662,-0.0759,-0.0573,-0.0572,-0.0572,-0.0572,0,0.0131,0.0132,0.0172,0.0189,0.0205,0.0238,0.0281,0.0317,0.0287,0.0332,0.0326,0.0252,0.0167,-0.0007,-0.018,-0.0314,-0.0525,-0.0488,-0.0433,-0.0445,-0.063,-0.0723,-0.0875,-0.0936,-0.0547,-0.0547,-0.0546,0,0.0159,0.0186,0.023,0.0272,0.0286,0.0335,0.0386,0.0381,0.0431,0.0439,0.0484,0.0416,0.0408,0.0174,-0.008,-0.0304,-0.0475,-0.0447,-0.0503,-0.0628,-0.0748,-0.0814,-0.086,-0.0495,-0.0494,-0.0494,-0.0493,0,0.0219,0.0235,0.0274,0.0362,0.0425,0.0496,0.0565,0.0629,0.064,0.0689,0.0761,0.0757,0.0539,0.0343,0.0023,-0.0159,-0.0547,-0.0438,-0.0602,-0.0741,-0.0791,-0.0861,-0.047,-0.0487,-0.0487,-0.0488,-0.0488,-0.0489,0.0273,0.0317,0.0379,0.0467,0.0545,0.0655,0.0734,0.082,0.0931,0.1012,0.0992,0.1015,0.0687,0.0271,0.0012,-0.046,-0.0487,-0.0621,-0.0727,-0.0783,-0.084,-0.0409,-0.0426,-0.0426,-0.0426,-0.0427,-0.0427,0,0.0346,0.0399,0.0483,0.0593,0.07,0.0721,0.0861,0.0947,0.1102,0.1182,0.1244,0.1112,0.0715,0.0271,-0.0348,-0.0689,-0.0838,-0.0895,-0.1018,-0.1055,-0.0702,-0.0697,-0.073,-0.073,-0.073,-0.073,-0.073,-0.073,0.0388,0.0485,0.0531,0.0715,0.0796,0.0943,0.1031,0.1158,0.1249,0.1376,0.14,0.1382,0.1061,-0.0061,-0.0822,-0.1014,-0.128,-0.1327,-0.1455,-0.1254,-0.1238,-0.1222,-0.124,-0.1387,-0.1388,-0.1754,-0.1758,-0.1761]}],[{"header":{"parameterUnit":"m.s-1","parameterCategory":2,"la1":30.2991,"la2":30.254,"lo1":-89.0895,"lo2":-89.0444,"dy":0.0017,"dx":0.0017,"nx":28,"ny":28,"refTime":"2024-12-19T03:00:00:Z","depth":"2","parameterNumber":2,"parameterNumberName":"U-component_of_CURRENTS"},"data":[0,0,0,0,0,0,0,0,0,0,0,0,0,0,0,0,0,0,0,0,0,0,0,0,0,0,0,0,0,0,0,0,0,0,0,0,0,0,0,0,0,0,0,0,0,0,0,0,0,0,0,0,0,0,0,0,0,0,0.1952,0.1953,0,0.2005,0.2005,0.2006,0.2032,0.2032,0.2032,0.2033,0.2061,0.2062,0.2062,0,0,0,0,0,0,0,0,0,0,0,0,0,0.1894,0.1894,0.1952,0.1953,0.1954,0.2005,0.2005,0.2006,0.2032,0.2032,0.2032,0.2033,0.2061,0.2061,0.2062,0,0,0,0,0,0,0,0,0,0,0,0,0,0.1928,0.1895,0.1952,0.1975,0.1978,0.2005,0.2005,0.2006,0.2032,0.2032,0.2032,0.2033,0.2061,0.2061,0.2062,0.2061,0,0,0.2065,0.2065,0,0,0,0,0,0,0,0,0.1926,0.193,0.1971,0.1973,0.1976,0.2014,0.1995,0.2024,0.2032,0.2009,0.2033,0.2033,0.2044,0.2047,0.2053,0.2062,0.2064,0.2065,0.2065,0.2066,0.2066,0,0,0,0,0,0,0,0.1923,0.1928,0.1971,0.1972,0.1975,0.1989,0.1994,0.2001,0.2022,0.2011,0.2013,0.2023,0.2045,0.2052,0.2054,0.2064,0.2065,0.2066,0.2066,0.2066,0.2098,0.2098,0,0,0,0,0,0,0.192,0.1925,0.1969,0.1973,0.1954,0.199,0.1995,0.2,0.2022,0.2027,0.2022,0.2024,0.205,0.2053,0.2055,0.2097,0.2066,0.2067,0.2067,0.2097,0.2098,0.2098,0,0,0,0,0,0,0.1919,0.1923,0.1967,0.1952,0.1959,0.1991,0.1996,0.2001,0.2014,0.2032,0.2036,0.2031,0.2051,0.2054,0.2064,0.2097,0.2067,0.2068,0.2097,0.2097,0.2098,0.2155,0,0,0,0,0,0,0.1917,0.1922,0.1926,0.1952,0.196,0.1985,0.1996,0.2002,0.202,0.2022,0.204,0.2043,0.2051,0.2062,0.2064,0.2098,0.2068,0.2097,0.2097,0.2098,0.2153,0.2157,0.2162,0,0,0,0,0,0.1914,0.192,0.1926,0.1932,0.1964,0.1985,0.199,0.2012,0.202,0.2025,0.2036,0.2043,0.2068,0.2063,0.2065,0.21,0.2096,0.2097,0.2098,0.2151,0.2157,0.2161,0,0,0,0,0,0,0.1896,0.1924,0.1931,0.1945,0.1964,0.199,0.2003,0.2013,0.2027,0.2032,0.2043,0.2046,0.2069,0.2066,0.2061,0.2107,0.2085,0.2086,0.2124,0.213,0.2134,0.217,0.2069,0,0,0,0,0,0.1894,0.1906,0.1931,0.1942,0.1952,0.1976,0.1989,0.2004,0.202,0.2028,0.204,0.2054,0.2073,0.2086,0.2093,0.2116,0.214,0.2139,0.2143,0.2147,0.2176,0.2224,0.2237,0.21,0.21,0.21,0,0,0.1891,0.1908,0.1915,0.1939,0.1957,0.1984,0.1984,0.2007,0.2039,0.2027,0.2066,0.2065,0.2078,0.2108,0.2119,0.2114,0.2196,0.2148,0.2152,0.2179,0.2227,0.224,0.2253,0.2101,0.2101,0.2101,0,0,0.1897,0.1905,0.1922,0.1939,0.1968,0.1989,0.1995,0.2023,0.2045,0.207,0.2079,0.2101,0.2115,0.2148,0.2163,0.2193,0.2211,0.2185,0.2251,0.2296,0.2309,0.232,0.2366,0.2381,0.2196,0.2196,0.2196,0,0.1894,0.1919,0.1929,0.1951,0.1977,0.1993,0.2024,0.2049,0.2078,0.2106,0.2087,0.2143,0.2145,0.2215,0.2228,0.221,0.2233,0.2233,0.2306,0.2318,0.2328,0.2372,0.2388,0.2199,0.2199,0.2199,0.2198,0,0.1915,0.1939,0.195,0.1991,0.2014,0.204,0.208,0.2112,0.2134,0.2159,0.2214,0.222,0.2263,0.2261,0.2258,0.234,0.2331,0.2301,0.23,0.2346,0.2388,0.2404,0.2203,0.2202,0.2201,0.2201,0,0,0.1906,0.1957,0.1963,0.1993,0.204,0.2064,0.2127,0.2191,0.2247,0.2265,0.2335,0.2367,0.2372,0.239,0.239,0.2433,0.2521,0.2407,0.2408,0.2467,0.263,0.2563,0.2573,0.2503,0.2506,0.2508,0.2629,0,0.1925,0.1974,0.2,0.206,0.2093,0.2137,0.2196,0.2253,0.2301,0.2366,0.2399,0.2447,0.2421,0.2445,0.2489,0.2512,0.2565,0.2491,0.2565,0.2568,0.2515,0.259,0.2392,0.2478,0.2645,0.2647,0.2649,0,0.1943,0.1977,0.2033,0.211,0.213,0.2172,0.228,0.2334,0.2429,0.2464,0.2529,0.2544,0.2629,0.2578,0.2684,0.2638,0.2652,0.2661,0.2665,0.26,0.253,0.2458,0.25,0.2675,0.2673,0.2671,0.267,0,0.1934,0.2005,0.2054,0.2076,0.216,0.221,0.2267,0.2364,0.2425,0.2534,0.2585,0.2667,0.2719,0.2758,0.2781,0.2743,0.288,0.2822,0.2783,0.2778,0.2625,0.2601,0.2905,0.2905,0.2904,0.2904,0.2904,0,0.1943,0.1982,0.2056,0.2079,0.2149,0.2215,0.2306,0.2377,0.2487,0.255,0.2633,0.2693,0.2766,0.2837,0.2839,0.2874,0.2933,0.2829,0.2817,0.2636,0.2613,0.2787,0.2772,0.2908,0.2907,0.2907,0.2906,0,0.1916,0.1964,0.2019,0.211,0.2142,0.2192,0.2308,0.2375,0.249,0.2584,0.262,0.2749,0.2833,0.2899,0.2974,0.2949,0.2978,0.2968,0.2754,0.2714,0.2832,0.2818,0.2952,0.2951,0.295,0.2949,0.2949,0,0.1905,0.1933,0.2017,0.2045,0.2085,0.217,0.2225,0.2353,0.2416,0.259,0.2621,0.276,0.2813,0.2932,0.2926,0.296,0.298,0.2779,0.2665,0.2869,0.2844,0.2831,0.2819,0.2488,0.2484,0.248,0.2477,0,0.188,0.1909,0.1946,0.2,0.2057,0.2116,0.2204,0.2251,0.2392,0.2476,0.257,0.2637,0.277,0.2716,0.2785,0.2759,0.2757,0.2705,0.3002,0.2495,0.2438,0.241,0.2413,0.2445,0.2449,0.2451,0.2453,0.2454,0.1851,0.186,0.1902,0.1945,0.2001,0.2034,0.2047,0.2138,0.2206,0.2291,0.2418,0.2456,0.253,0.252,0.247,0.2443,0.2609,0.2491,0.25,0.2513,0.2426,0.2369,0.2348,0.2351,0.2353,0.2355,0.2357,0,0.1785,0.1804,0.1845,0.1873,0.1881,0.1946,0.2002,0.199,0.2004,0.2121,0.2181,0.2068,0.2075,0.2141,0.2066,0.2089,0.2047,0.1995,0.1918,0.1953,0.1984,0.1866,0.1642,0.1639,0.1637,0.1634,0,0,0.1752,0.1741,0.1754,0.1732,0.1757,0.1732,0.1733,0.1734,0.1785,0.1779,0.1795,0.1973,0.2088,0.1824,0.1819,0.1713,0.1807,0.1651,0.2235,0.218,0.2207,0.2295,0.2158,0,0,0,0,0]},{"header":{"parameterUnit":"m.s-1","parameterCategory":2,"la1":30.2991,"la2":30.254,"lo1":-89.0895,"lo2":-89.0444,"dy":0.0017,"dx":0.0017,"nx":28,"ny":28,"refTime":"2024-12-19T03:00:00:Z","depth":"2","parameterNumber":3,"parameterNumberName":"V-component_of_CURRENTS"},"data":[0,0,0,0,0,0,0,0,0,0,0,0,0,0,0,0,0,0,0,0,0,0,0,0,0,0,0,0,0,0,0,0,0,0,0,0,0,0,0,0,0,0,0,0,0,0,0,0,0,0,0,0,0,0,0,0,0,0,0.0023,0.0022,0,-0.0043,-0.0044,-0.0045,-0.0091,-0.0091,-0.0091,-0.0091,-0.0188,-0.019,-0.0192,0,0,0,0,0,0,0,0,0,0,0,0,0,0.0059,0.0059,0.0023,0.0022,0.0021,-0.0043,-0.0044,-0.0045,-0.0091,-0.0091,-0.0091,-0.0092,-0.0187,-0.019,-0.0192,0,0,0,0,0,0,0,0,0,0,0,0,0,0.0023,0.0059,0.0023,-0.0009,-0.0012,-0.0043,-0.0044,-0.0046,-0.009,-0.0091,-0.0091,-0.0092,-0.0186,-0.0189,-0.0193,-0.0205,0,0,-0.0203,-0.0205,0,0,0,0,0,0,0,0,0.0025,0.0021,-0.0003,-0.0007,-0.0011,-0.0059,-0.0067,-0.01,-0.009,-0.0061,-0.0091,-0.0092,-0.0147,-0.0153,-0.0165,-0.021,-0.0214,-0.0204,-0.0206,-0.0207,-0.0208,0,0,0,0,0,0,0,0.0027,0.0023,-0.0004,-0.0004,-0.0009,-0.0037,-0.0042,-0.0074,-0.0102,-0.0064,-0.0067,-0.0074,-0.0149,-0.0162,-0.0168,-0.0216,-0.0203,-0.0207,-0.0209,-0.021,-0.0276,-0.0276,0,0,0,0,0,0,0.004,0.0026,-0.0002,-0.0006,0.0007,-0.0037,-0.0043,-0.0043,-0.0101,-0.011,-0.0073,-0.0075,-0.0156,-0.0164,-0.0171,-0.0191,-0.0207,-0.021,-0.0212,-0.0277,-0.0276,-0.0276,0,0,0,0,0,0,0.0041,0.0038,0.0001,0.0009,0.0002,-0.0037,-0.0037,-0.0044,-0.0058,-0.0107,-0.0117,-0.0079,-0.0156,-0.0167,-0.019,-0.0195,-0.0212,-0.0215,-0.0277,-0.0276,-0.0276,-0.0231,0,0,0,0,0,0,0.0042,0.0039,0.0041,0.001,0.0002,-0.001,-0.0037,-0.0045,-0.0061,-0.0064,-0.0116,-0.0125,-0.0157,-0.0184,-0.0193,-0.0201,-0.0218,-0.0277,-0.0277,-0.0276,-0.0232,-0.0229,-0.0225,0,0,0,0,0,0.0044,0.0051,0.0042,0.0038,0.0007,-0.001,-0.0016,-0.0047,-0.006,-0.0061,-0.0092,-0.0123,-0.0187,-0.0186,-0.0197,-0.0206,-0.0278,-0.0277,-0.0276,-0.0234,-0.0229,-0.0225,0,0,0,0,0,0,0.0066,0.0046,0.0035,0.0035,0.0017,-0.0017,-0.0023,-0.0042,-0.0067,-0.0071,-0.0118,-0.0129,-0.0152,-0.018,-0.0178,-0.0222,-0.0239,-0.024,-0.0203,-0.0199,-0.0196,-0.018,-0.0221,0,0,0,0,0,0.0074,0.0074,0.005,0.005,0.0044,0.0012,-0.0,-0.0017,-0.0044,-0.0056,-0.0091,-0.0127,-0.0157,-0.0178,-0.0206,-0.023,-0.0253,-0.0243,-0.0239,-0.0236,-0.0229,-0.0266,-0.0265,-0.0274,-0.0274,-0.0274,0,0,0.0081,0.007,0.0069,0.0054,0.0037,0.0034,0.0004,-0.0007,-0.0013,-0.0062,-0.0081,-0.0114,-0.0158,-0.0182,-0.0196,-0.0209,-0.0243,-0.0235,-0.0232,-0.0227,-0.0265,-0.0265,-0.0264,-0.0273,-0.0273,-0.0273,0,0,0.01,0.0089,0.0097,0.0088,0.007,0.0051,0.0052,0.0022,0.0005,-0.0015,-0.005,-0.008,-0.013,-0.0161,-0.0184,-0.0178,-0.0219,-0.0191,-0.0169,-0.0204,-0.0204,-0.0204,-0.0221,-0.0223,-0.0195,-0.0195,-0.0195,0,0.0109,0.0119,0.0096,0.0104,0.0102,0.0064,0.0075,0.0051,0.0016,0.0009,-0.0014,-0.0079,-0.012,-0.0149,-0.0151,-0.0171,-0.019,-0.0182,-0.02,-0.02,-0.0201,-0.0219,-0.0222,-0.0193,-0.0193,-0.0193,-0.0193,0,0.0138,0.0144,0.015,0.0148,0.0141,0.0145,0.0116,0.0102,0.0075,0.0051,0.002,-0.0036,-0.0074,-0.0098,-0.0127,-0.0152,-0.0162,-0.0187,-0.021,-0.0198,-0.0217,-0.0221,-0.0189,-0.019,-0.0191,-0.0191,0,0,0.0164,0.017,0.0172,0.0185,0.0169,0.017,0.0159,0.0145,0.0148,0.0094,0.0091,0.0021,-0.001,-0.0037,-0.0083,-0.0122,-0.0148,-0.0155,-0.0158,-0.0169,-0.0214,-0.0214,-0.0218,-0.0179,-0.0179,-0.018,-0.0221,0,0.0195,0.0227,0.0217,0.0244,0.026,0.023,0.023,0.021,0.0182,0.0169,0.0099,0.0078,0.0012,-0.0003,-0.0055,-0.0119,-0.0158,-0.0134,-0.0226,-0.0229,-0.0228,-0.0223,-0.0206,-0.0242,-0.0225,-0.0226,-0.0226,0,0.0229,0.0249,0.0285,0.0307,0.0312,0.0316,0.0319,0.0314,0.028,0.0259,0.0212,0.0165,0.0101,0.0046,-0.0072,-0.0054,-0.0128,-0.0185,-0.0189,-0.0207,-0.0236,-0.0254,-0.025,-0.0233,-0.0232,-0.0232,-0.0231,0,0.0271,0.0299,0.0333,0.034,0.0352,0.0359,0.0359,0.0341,0.036,0.0317,0.0325,0.0234,0.0204,0.0087,-0.0039,-0.0056,-0.0159,-0.0199,-0.0268,-0.0268,-0.0281,-0.0281,-0.028,-0.0279,-0.0279,-0.0279,-0.0279,0,0.0315,0.0343,0.0356,0.0376,0.0427,0.0409,0.0453,0.0437,0.0438,0.0474,0.0376,0.0385,0.0212,0.0133,-0.0003,-0.0137,-0.0136,-0.0257,-0.0281,-0.0263,-0.0261,-0.0278,-0.0278,-0.0281,-0.028,-0.028,-0.028,0,0.0358,0.0364,0.041,0.0434,0.045,0.0482,0.0529,0.0562,0.0543,0.0585,0.0579,0.0507,0.0398,0.023,0.0058,-0.007,-0.0211,-0.0259,-0.0215,-0.0233,-0.0306,-0.0302,-0.0345,-0.0345,-0.0346,-0.0346,-0.0346,0,0.0384,0.0411,0.0463,0.0501,0.0514,0.0563,0.0608,0.0615,0.0659,0.0668,0.07,0.0617,0.0569,0.032,0.0082,-0.0146,-0.0185,-0.0275,-0.0316,-0.0294,-0.0314,-0.0309,-0.0306,-0.0313,-0.0313,-0.0313,-0.0313,0,0.0437,0.045,0.0492,0.0574,0.0626,0.0699,0.0757,0.0815,0.0829,0.0858,0.0887,0.085,0.0618,0.0397,0.0089,-0.0072,-0.0243,-0.0281,-0.0274,-0.0294,-0.0267,-0.0285,-0.0282,-0.0312,-0.0312,-0.0312,-0.0312,-0.0312,0.0476,0.0518,0.0574,0.0654,0.0723,0.0817,0.0884,0.0948,0.1029,0.107,0.1032,0.0976,0.0721,0.0332,0.0061,-0.0227,-0.0224,-0.0335,-0.0334,-0.0334,-0.0318,-0.0292,-0.0338,-0.0339,-0.0339,-0.0339,-0.0339,0,0.0528,0.0575,0.0653,0.0747,0.0831,0.086,0.0976,0.1039,0.1134,0.1166,0.1171,0.0935,0.0676,0.0384,-0.0035,-0.0289,-0.0323,-0.0372,-0.0358,-0.0356,-0.0355,-0.0341,-0.0368,-0.0369,-0.037,-0.037,0,0,0.0556,0.0637,0.0677,0.0821,0.089,0.1009,0.1079,0.1165,0.1216,0.1249,0.1217,0.1131,0.0777,0.0472,0.0121,-0.0117,-0.0181,-0.0172,-0.0123,-0.0065,-0.006,-0.031,-0.0283,0,0,0,0,0]}],[{"header":{"parameterUnit":"m.s-1","parameterCategory":2,"la1":30.2991,"la2":30.254,"lo1":-89.0895,"lo2":-89.0444,"dy":0.0017,"dx":0.0017,"nx":28,"ny":28,"refTime":"2024-12-19T03:00:00:Z","depth":"4","parameterNumber":2,"parameterNumberName":"U-component_of_CURRENTS"},"data":[0,0,0,0,0,0,0,0,0,0,0,0,0,0,0,0,0,0,0,0,0,0,0,0,0,0,0,0,0,0,0,0,0,0,0,0,0,0,0,0,0,0,0,0,0,0,0,0,0,0,0,0,0,0,0,0,0,0,0.1177,0.1178,0,0.1214,0.1215,0.1215,0.1237,0.1237,0.1237,0.1238,0.1266,0.1267,0.1267,0,0,0,0,0,0,0,0,0,0,0,0,0,0.1099,0.11,0.1177,0.1178,0.1179,0.1214,0.1215,0.1215,0.1237,0.1237,0.1238,0.1238,0.1266,0.1267,0.1267,0,0,0,0,0,0,0,0,0,0,0,0,0,0.1133,0.1101,0.1177,0.1195,0.1197,0.1214,0.1215,0.1215,0.1237,0.1237,0.1238,0.1238,0.1266,0.1267,0.1268,0.1264,0,0,0.127,0.127,0,0,0,0,0,0,0,0,0.1131,0.1135,0.1192,0.1194,0.1197,0.1223,0.1198,0.1232,0.1237,0.122,0.1238,0.1238,0.1252,0.1254,0.1257,0.1265,0.1266,0.127,0.127,0.1271,0.1271,0,0,0,0,0,0,0,0.1128,0.1134,0.119,0.1193,0.1196,0.1193,0.1198,0.1204,0.1231,0.1221,0.1223,0.1231,0.1253,0.1257,0.1258,0.1267,0.127,0.1271,0.1271,0.1271,0.1349,0.135,0,0,0,0,0,0,0.1129,0.1132,0.1189,0.1191,0.1166,0.1194,0.12,0.1213,0.1232,0.1236,0.123,0.1232,0.1255,0.1257,0.1259,0.1316,0.1271,0.1271,0.1272,0.1347,0.1349,0.1351,0,0,0,0,0,0,0.1127,0.1134,0.1187,0.1163,0.117,0.1195,0.1209,0.1213,0.1243,0.1239,0.1242,0.1259,0.1256,0.1258,0.1294,0.1315,0.1272,0.1272,0.1345,0.1348,0.135,0.1391,0,0,0,0,0,0,0.1125,0.1133,0.1154,0.1164,0.1172,0.1216,0.1209,0.1214,0.1246,0.1249,0.1264,0.1266,0.1256,0.1293,0.1294,0.1315,0.1273,0.1343,0.1347,0.1349,0.1387,0.1394,0.14,0,0,0,0,0,0.1122,0.1143,0.1155,0.1163,0.1196,0.1217,0.1221,0.1238,0.1247,0.1266,0.1282,0.1267,0.1313,0.1295,0.1296,0.1318,0.1342,0.1346,0.1349,0.1385,0.1393,0.14,0,0,0,0,0,0,0.1121,0.1147,0.1161,0.1191,0.1213,0.1222,0.1244,0.1255,0.1282,0.1293,0.1287,0.129,0.1328,0.1323,0.1303,0.1352,0.1325,0.1329,0.1352,0.136,0.1366,0.1377,0.1274,0,0,0,0,0,0.1131,0.1156,0.1178,0.1205,0.122,0.1239,0.1255,0.1268,0.1287,0.13,0.1312,0.1327,0.134,0.1351,0.1362,0.1388,0.1397,0.1405,0.1412,0.1417,0.1429,0.1464,0.1475,0.1363,0.1363,0.1363,0,0,0.1138,0.1158,0.1172,0.1208,0.1228,0.1246,0.125,0.1285,0.13,0.1299,0.1336,0.1353,0.1354,0.1384,0.14,0.1384,0.1454,0.1422,0.1426,0.1436,0.1469,0.148,0.149,0.1365,0.1365,0.1365,0,0,0.1152,0.1185,0.1207,0.1229,0.1268,0.1275,0.1292,0.1321,0.1339,0.1372,0.1378,0.1413,0.143,0.1439,0.1441,0.1492,0.1489,0.15,0.1538,0.1572,0.1581,0.159,0.1615,0.1625,0.1501,0.1501,0.1501,0,0.1162,0.119,0.1217,0.1242,0.126,0.129,0.131,0.133,0.1368,0.1391,0.1392,0.1447,0.1452,0.1485,0.1509,0.1505,0.1527,0.1504,0.158,0.1588,0.1596,0.162,0.1631,0.1503,0.1503,0.1503,0.1503,0,0.1182,0.1215,0.1232,0.1268,0.1291,0.1319,0.1344,0.1378,0.1403,0.1426,0.1483,0.1498,0.1536,0.154,0.154,0.1602,0.1601,0.1584,0.1557,0.161,0.1632,0.1642,0.1507,0.1506,0.1505,0.1505,0,0,0.1172,0.1232,0.1241,0.1263,0.1309,0.1327,0.1362,0.1401,0.1439,0.148,0.1528,0.1562,0.1601,0.1609,0.162,0.1649,0.1722,0.1653,0.1653,0.1672,0.1807,0.1702,0.1703,0.1726,0.1728,0.173,0.18,0,0.118,0.1224,0.1252,0.1292,0.1312,0.1351,0.1382,0.1428,0.1468,0.1526,0.156,0.1619,0.1616,0.1657,0.1687,0.1722,0.1753,0.1706,0.1759,0.176,0.1656,0.1713,0.1736,0.1808,0.181,0.1812,0.1813,0,0.1182,0.1212,0.1251,0.1306,0.1322,0.1356,0.1418,0.1453,0.1534,0.158,0.1647,0.1683,0.1757,0.1738,0.182,0.1797,0.1818,0.1827,0.1829,0.1725,0.1675,0.1745,0.1831,0.183,0.1829,0.1827,0.1826,0,0.1147,0.1207,0.1238,0.1258,0.1325,0.1362,0.1406,0.1481,0.1526,0.1637,0.1688,0.1769,0.1827,0.1865,0.19,0.188,0.1972,0.1936,0.1854,0.1846,0.19,0.189,0.199,0.199,0.199,0.199,0.199,0,0.1126,0.1155,0.1235,0.1254,0.1304,0.1362,0.1428,0.1492,0.1588,0.1652,0.1732,0.1782,0.1869,0.192,0.1934,0.1932,0.2004,0.1876,0.1862,0.1915,0.1907,0.1907,0.1896,0.1992,0.1992,0.1991,0.1991,0,0.1077,0.1129,0.117,0.1256,0.129,0.133,0.144,0.1487,0.1595,0.1678,0.1725,0.1832,0.1908,0.1957,0.2027,0.1968,0.1977,0.1955,0.2024,0.201,0.1819,0.181,0.1867,0.1864,0.1862,0.186,0.1858,0,0.1052,0.107,0.1165,0.1196,0.1243,0.1317,0.1368,0.1486,0.1536,0.1684,0.1714,0.1831,0.1888,0.19,0.196,0.1982,0.1955,0.1941,0.1865,0.1829,0.181,0.1805,0.1799,0.1854,0.1853,0.1852,0.1852,0,0.0998,0.1044,0.108,0.1151,0.1211,0.126,0.1348,0.1379,0.1511,0.1616,0.1683,0.1723,0.1798,0.1843,0.1881,0.1883,0.1938,0.1914,0.1918,0.1846,0.1813,0.1796,0.1793,0.1843,0.1844,0.1845,0.1846,0,0.0961,0.0971,0.1033,0.1086,0.1156,0.1189,0.1241,0.1309,0.1376,0.1543,0.1563,0.168,0.1791,0.1792,0.1821,0.1828,0.179,0.1717,0.173,0.1741,0.1664,0.1601,0.1568,0,0,0,0,0,0.0916,0.0923,0.0965,0.1016,0.1085,0.1129,0.1219,0.1272,0.1398,0.1417,0.1492,0.1558,0.1613,0.1665,0.1647,0.1749,0.1787,0.1717,0.1707,0.1794,0.1804,0.1724,0,0,0,0,0,0,0.088,0.0916,0.0934,0.0952,0.0981,0.1043,0.1097,0.118,0.1195,0.133,0.137,0.1471,0.1546,0.1624,0.1623,0.1639,0.1601,0.1795,0.1791,0.1788,0.1798,0.1806,0.1726,0,0,0,0,0]},{"header":{"parameterUnit":"m.s-1","parameterCategory":2,"la1":30.2991,"la2":30.254,"lo1":-89.0895,"lo2":-89.0444,"dy":0.0017,"dx":0.0017,"nx":28,"ny":28,"refTime":"2024-12-19T03:00:00:Z","depth":"4","parameterNumber":3,"parameterNumberName":"V-component_of_CURRENTS"},"data":[0,0,0,0,0,0,0,0,0,0,0,0,0,0,0,0,0,0,0,0,0,0,0,0,0,0,0,0,0,0,0,0,0,0,0,0,0,0,0,0,0,0,0,0,0,0,0,0,0,0,0,0,0,0,0,0,0,0,0.0152,0.0152,0,0.0124,0.0123,0.0123,0.0114,0.0114,0.0114,0.0114,0.0074,0.0073,0.0072,0,0,0,0,0,0,0,0,0,0,0,0,0,0.0174,0.0174,0.0152,0.0152,0.0151,0.0124,0.0123,0.0123,0.0114,0.0114,0.0114,0.0114,0.0075,0.0073,0.0072,0,0,0,0,0,0,0,0,0,0,0,0,0,0.0157,0.0174,0.0152,0.0144,0.0143,0.0124,0.0123,0.0123,0.0114,0.0114,0.0114,0.0114,0.0075,0.0073,0.0072,0.0056,0,0,0.0066,0.0065,0,0,0,0,0,0,0,0,0.0158,0.0156,0.0145,0.0144,0.0143,0.0123,0.0116,0.01,0.0114,0.0124,0.0114,0.0115,0.0089,0.0086,0.008,0.0054,0.0052,0.0066,0.0065,0.0064,0.0064,0,0,0,0,0,0,0,0.0159,0.0157,0.014,0.0145,0.0144,0.0133,0.0131,0.0113,0.0105,0.0123,0.0123,0.012,0.0089,0.0082,0.0079,0.0051,0.0066,0.0064,0.0063,0.0063,0.0008,0.0008,0,0,0,0,0,0,0.0164,0.0158,0.0141,0.014,0.0152,0.0133,0.013,0.0129,0.0106,0.0103,0.012,0.012,0.0085,0.0081,0.0078,0.0076,0.0064,0.0062,0.0061,0.0009,0.0008,0.0008,0,0,0,0,0,0,0.0165,0.0163,0.0142,0.0148,0.0145,0.0132,0.013,0.0128,0.0123,0.0103,0.01,0.0118,0.0085,0.008,0.0064,0.0074,0.0062,0.006,0.0009,0.0009,0.0008,0.0061,0,0,0,0,0,0,0.0166,0.0163,0.0164,0.0149,0.0145,0.0134,0.013,0.0127,0.0121,0.0121,0.01,0.0097,0.0085,0.0067,0.0062,0.0071,0.0058,0.001,0.0009,0.0008,0.0059,0.0062,0.0064,0,0,0,0,0,0.0167,0.0168,0.0164,0.0162,0.0146,0.0134,0.0131,0.0122,0.0121,0.0119,0.0105,0.0098,0.0059,0.0065,0.006,0.0068,0.001,0.0009,0.0008,0.0058,0.0061,0.0064,0,0,0,0,0,0,0.0176,0.0167,0.0163,0.0161,0.0149,0.0132,0.0131,0.0123,0.011,0.0112,0.0093,0.0089,0.0076,0.0059,0.0066,0.0048,0.0033,0.0031,0.0073,0.0075,0.0078,0.01,0.0057,0,0,0,0,0,0.0179,0.018,0.0165,0.0164,0.016,0.0145,0.0139,0.0133,0.012,0.0115,0.0099,0.0082,0.0068,0.0062,0.0042,0.0034,0.0011,0.0034,0.0036,0.0038,0.0051,0.002,0.0022,0.0005,0.0005,0.0005,0,0,0.0183,0.0178,0.0178,0.0166,0.0158,0.0161,0.0142,0.0137,0.0144,0.0112,0.0113,0.0087,0.0065,0.0057,0.005,0.0047,0.0028,0.0037,0.004,0.0052,0.002,0.0022,0.0023,0.0005,0.0005,0.0005,0,0,0.0195,0.0186,0.0194,0.0187,0.0178,0.0171,0.017,0.0154,0.0152,0.0144,0.0125,0.0108,0.0081,0.0074,0.0066,0.0067,0.0038,0.0054,0.0093,0.0063,0.0064,0.0065,0.0032,0.003,0.0061,0.0061,0.0061,0,0.0201,0.0211,0.0192,0.0199,0.0204,0.0179,0.0193,0.0185,0.0166,0.0168,0.0151,0.0116,0.0095,0.0097,0.0098,0.0077,0.0049,0.0088,0.0068,0.0069,0.0069,0.0034,0.0031,0.0063,0.0063,0.0063,0.0062,0,0.0221,0.023,0.0234,0.0241,0.0239,0.0245,0.0235,0.0233,0.0224,0.0214,0.0203,0.0168,0.015,0.0137,0.0121,0.0115,0.0091,0.0072,0.0067,0.0074,0.0036,0.0032,0.0067,0.0066,0.0065,0.0064,0,0,0.0233,0.0248,0.0251,0.0269,0.0266,0.027,0.0283,0.0288,0.0303,0.0272,0.0282,0.0251,0.0224,0.0212,0.0182,0.016,0.0134,0.0123,0.012,0.0102,0.0061,0.0034,0.0027,0.0109,0.0109,0.0109,0.0031,0,0.0258,0.029,0.0289,0.0325,0.0343,0.0334,0.0351,0.0351,0.0341,0.0339,0.0304,0.0294,0.0255,0.0246,0.0217,0.0153,0.0127,0.0157,0.0046,0.0043,0.0029,0.0023,0.0108,0.0028,0.0027,0.0026,0.0025,0,0.0281,0.0304,0.0344,0.0381,0.0389,0.0405,0.0433,0.0444,0.0434,0.0426,0.0405,0.0365,0.0333,0.0293,0.0199,0.0217,0.0148,0.0096,0.0091,0.005,0.001,0.0018,0.0018,0.0018,0.0019,0.0019,0.002,0,0.0306,0.0345,0.0384,0.0394,0.0425,0.0448,0.0465,0.047,0.0488,0.0479,0.0477,0.0426,0.0394,0.031,0.0195,0.0195,0.0081,0.0064,-0.0023,-0.0027,-0.0001,-0.0002,-0.0,-0.0,0.0,0.0,0.0001,0,0.0334,0.0367,0.0402,0.0424,0.0477,0.0484,0.0533,0.0542,0.0551,0.0567,0.0522,0.0507,0.0395,0.031,0.021,0.0077,0.0087,-0.0014,-0.0046,0.002,0.0023,-0.0005,-0.0004,-0.0003,-0.0002,-0.0001,-0.0001,0,0.0352,0.0373,0.0424,0.047,0.049,0.0526,0.058,0.0609,0.0614,0.0631,0.0628,0.056,0.0447,0.0326,0.0178,0.0094,-0.0025,-0.0076,0.0002,-0.0025,-0.0116,-0.0112,-0.0173,-0.0174,-0.0176,-0.0177,-0.0178,0,0.0363,0.039,0.0457,0.049,0.0515,0.0571,0.061,0.0639,0.0663,0.0655,0.0656,0.0563,0.0498,0.0278,0.0146,-0.0044,-0.0074,-0.0133,-0.0117,-0.0107,-0.0132,-0.0126,-0.0121,-0.018,-0.018,-0.018,-0.0181,0,0.0384,0.0408,0.0449,0.0517,0.0569,0.0627,0.0677,0.0697,0.0719,0.0727,0.0674,0.0564,0.0432,0.0266,0.0116,-0.002,-0.0089,-0.0146,-0.0145,-0.0131,-0.0116,-0.0139,-0.0132,-0.0185,-0.0185,-0.0184,-0.0184,0,0.0398,0.0426,0.0478,0.0538,0.0603,0.0651,0.0684,0.0704,0.0727,0.0713,0.0688,0.0559,0.0486,0.0276,0.0136,0.0001,-0.0032,-0.0069,-0.0071,-0.0068,-0.0016,0.0019,-0.0033,0,0,0,0,0,0.0407,0.0436,0.0493,0.0556,0.062,0.066,0.0713,0.0736,0.0754,0.0723,0.0708,0.0586,0.0378,0.0287,0.0146,0.0101,-0.0062,-0.0068,-0.0107,-0.021,-0.0205,-0.0165,0,0,0,0,0,0,0.0409,0.0461,0.0488,0.0557,0.0603,0.0674,0.0711,0.0727,0.0705,0.0702,0.0593,0.0551,0.0347,0.0461,0.0145,0.0103,0.0059,-0.0161,-0.0164,-0.0213,-0.0208,-0.0204,-0.0161,0,0,0,0,0]}]]